Falfurrias, TX

3:20 PM CDT on August 27, 2016 (GMT -0500)
Falfurrias

Weather History for KBKS - May, 2014

Change the Weather History Date:

Sunday, May 25, 2014

  Actual Average (KNQI) Record (KNQI)
Temperature  
Mean Temperature 82 °F -  
Max Temperature 89 °F 88 °F 97 °F (2011)
Min Temperature 74 °F 70 °F 66 °F (2007)
Cooling Degree Days 16    
Growing Degree Days 32 (Base 50)    
Moisture  
Dew Point 71 °F    
Average Humidity 73    
Maximum Humidity 91    
Minimum Humidity 50    
Precipitation  
Precipitation 0.00 in - - ()
Sea Level Pressure  
Sea Level Pressure 29.92 in    
Wind  
Wind Speed 11 mph (SE)    
Max Wind Speed 20 mph    
Max Gust Speed 25 mph    
Visibility 9 miles    
Events      
Averages and records for this station are not official NWS values.
T = Trace of Precipitation, MM = Missing Value Source: NWS Daily Summary

Daily Weather History Graph

Daily Weather History Graph

Search for Another Location

Airport or City:

Trip Planner

Search our weather history database for the weather conditions in past years. The results will help you decide how hot, cold, wet, or windy it might be!

Date:

Astronomy

May. 25, 2014 Rise Set
Actual Time 6:39 AM CDT 8:19 PM CDT
Civil Twilight 6:14 AM CDT 8:45 PM CDT
Nautical Twilight 5:43 AM CDT 9:16 PM CDT
Astronomical Twilight 5:10 AM CDT 9:48 PM CDT
Moon 4:27 AM CDT (5/25) 5:36 PM CDT (5/25)
Length of Visible Light 14h 31m
Length of Day
13h 39m
Waning Crescent, 10% of the Moon is Illuminated
May 25
Waning Crescent
May 28
New
Jun 5
First Quarter
Jun 12
Full
Jun 19
Last Quarter

Hourly Weather History & Observations

Time (CDT) Temp. Heat Index Dew Point Humidity Pressure Visibility Wind Dir Wind Speed Gust Speed Precip Events Conditions
12:15 AM 76.1 °F - 71.2 °F 85% 29.95 in 10.0 mi ESE 10.4 mph - N/A   Scattered Clouds
12:35 AM 75.7 °F - 71.6 °F 87% 29.95 in 10.0 mi ESE 8.1 mph - N/A   Scattered Clouds
12:55 AM 75.6 °F - 71.6 °F 87% 29.94 in 10.0 mi SE 11.5 mph 17.3 mph N/A   Mostly Cloudy
1:15 AM 75.4 °F - 71.6 °F 88% 29.93 in 10.0 mi ESE 9.2 mph - N/A   Mostly Cloudy
1:35 AM 75.4 °F - 71.8 °F 89% 29.93 in 10.0 mi ESE 8.1 mph - N/A   Mostly Cloudy
1:55 AM 75.2 °F - 71.6 °F 89% 29.93 in 10.0 mi ESE 8.1 mph - N/A   Mostly Cloudy
2:15 AM 75.2 °F - 71.6 °F 89% 29.93 in 10.0 mi ESE 6.9 mph - N/A   Mostly Cloudy
2:35 AM 74.8 °F - 71.6 °F 90% 29.92 in 7.0 mi ESE 6.9 mph - N/A   Scattered Clouds
2:55 AM 74.3 °F - 71.4 °F 91% 29.92 in 7.0 mi SE 4.6 mph - N/A   Mostly Cloudy
3:15 AM 74.7 °F - 71.6 °F 90% 29.92 in 7.0 mi ESE 3.5 mph - N/A   Overcast
3:35 AM 75.0 °F - 71.6 °F 89% 29.91 in 10.0 mi ESE 5.8 mph - N/A   Overcast
3:55 AM 75.4 °F - 71.6 °F 88% 29.91 in 10.0 mi East 8.1 mph - N/A   Overcast
4:15 AM 76.1 °F - 71.6 °F 86% 29.91 in 10.0 mi ESE 8.1 mph - N/A   Overcast
4:35 AM 76.1 °F - 71.6 °F 86% 29.90 in 10.0 mi ESE 8.1 mph - N/A   Overcast
4:55 AM 76.1 °F - 71.6 °F 86% 29.89 in 10.0 mi ESE 10.4 mph - N/A   Mostly Cloudy
5:15 AM 75.6 °F - 71.8 °F 88% 29.90 in 7.0 mi SE 9.2 mph - N/A   Mostly Cloudy
5:35 AM 75.9 °F - 71.8 °F 87% 29.90 in 10.0 mi SE 8.1 mph - N/A   Overcast
5:55 AM 76.1 °F - 71.8 °F 86% 29.89 in 10.0 mi ESE 9.2 mph - N/A   Overcast
6:15 AM 76.1 °F - 71.8 °F 86% 29.90 in 7.0 mi ESE 8.1 mph - N/A   Overcast
6:35 AM 76.1 °F - 72.0 °F 87% 29.91 in 7.0 mi ESE 9.2 mph - N/A   Overcast
6:55 AM 76.1 °F - 72.0 °F 87% 29.92 in 7.0 mi ESE 8.1 mph - N/A   Overcast
7:15 AM 76.1 °F - 71.8 °F 86% 29.92 in 5.0 mi SE 8.1 mph - N/A   Overcast
7:35 AM 76.1 °F - 71.6 °F 86% 29.93 in 5.0 mi SE 8.1 mph - N/A   Mostly Cloudy
7:55 AM 76.6 °F - 71.8 °F 85% 29.93 in 7.0 mi SE 10.4 mph - N/A   Overcast
8:15 AM 77.2 °F - 71.8 °F 83% 29.94 in 7.0 mi SE 9.2 mph 16.1 mph N/A   Overcast
8:35 AM 78.3 °F - 71.8 °F 80% 29.94 in 7.0 mi SSE 13.8 mph 19.6 mph N/A   Mostly Cloudy
8:55 AM 78.8 °F - 71.6 °F 78% 29.94 in 7.0 mi SE 13.8 mph 19.6 mph N/A   Overcast
9:15 AM 79.2 °F - 71.6 °F 78% 29.95 in 7.0 mi SE 12.7 mph 16.1 mph N/A   Overcast
9:55 AM 80.4 °F 83.9 °F 70.7 °F 72% 29.96 in 10.0 mi SE 15.0 mph 20.7 mph N/A   Overcast
10:15 AM 82.2 °F 86.4 °F 70.7 °F 68% 29.96 in 5.0 mi SE 16.1 mph 21.9 mph N/A   Overcast
10:35 AM 83.5 °F 87.7 °F 70.0 °F 64% 29.96 in 7.0 mi SSE 18.4 mph 25.3 mph N/A   Mostly Cloudy
10:55 AM 82.6 °F 86.4 °F 69.6 °F 65% 29.96 in 10.0 mi SSE 15.0 mph 19.6 mph N/A   Mostly Cloudy
11:15 AM 85.1 °F 88.8 °F 68.7 °F 58% 29.95 in 7.0 mi SE 16.1 mph 23.0 mph N/A   Mostly Cloudy
11:35 AM 84.7 °F 88.2 °F 68.5 °F 58% 29.95 in 10.0 mi SE 17.3 mph 20.7 mph N/A   Mostly Cloudy
11:55 AM 85.6 °F 89.1 °F 68.2 °F 56% 29.95 in 10.0 mi SE 16.1 mph 24.2 mph N/A   Mostly Cloudy
12:15 PM 86.4 °F 89.4 °F 67.6 °F 53% 29.95 in 10.0 mi SE 15.0 mph 23.0 mph N/A   Mostly Cloudy
12:35 PM 87.4 °F 90.8 °F 67.6 °F 52% 29.94 in 10.0 mi SE 16.1 mph 21.9 mph N/A   Scattered Clouds
12:55 PM 88.2 °F 91.3 °F 67.3 °F 50% 29.93 in 10.0 mi SE 12.7 mph - N/A   Scattered Clouds
1:15 PM 87.1 °F 89.9 °F 66.9 °F 51% 29.94 in 10.0 mi SE 11.5 mph 18.4 mph N/A   Mostly Cloudy
1:35 PM 86.2 °F 89.1 °F 67.3 °F 53% 29.94 in 10.0 mi SE 15.0 mph 23.0 mph N/A   Overcast
1:55 PM 87.1 °F 90.6 °F 68.0 °F 53% 29.93 in 10.0 mi SSE 13.8 mph 24.2 mph N/A   Overcast
2:15 PM 87.6 °F 90.4 °F 66.9 °F 50% 29.93 in 10.0 mi SE 13.8 mph - N/A   Overcast
2:35 PM 87.3 °F 90.2 °F 67.1 °F 51% 29.92 in 10.0 mi SE 15.0 mph 19.6 mph N/A   Overcast
2:55 PM 87.3 °F 90.9 °F 68.0 °F 53% 29.91 in 10.0 mi SSE 15.0 mph 23.0 mph N/A   Overcast
3:15 PM 87.3 °F 90.9 °F 68.2 °F 53% 29.91 in 7.0 mi SSE 12.7 mph 23.0 mph N/A   Overcast
3:35 PM 87.1 °F 90.2 °F 67.6 °F 52% 29.90 in 10.0 mi SSE 16.1 mph - N/A   Overcast
3:55 PM 87.8 °F 91.1 °F 67.6 °F 51% 29.89 in 10.0 mi SE 15.0 mph - N/A   Overcast
4:15 PM 87.3 °F 92.0 °F 69.6 °F 56% 29.88 in 10.0 mi ESE 13.8 mph 19.6 mph N/A   Mostly Cloudy
4:35 PM 89.6 °F 94.3 °F 69.3 °F 51% 29.88 in 10.0 mi SE 12.7 mph - N/A   Scattered Clouds
4:55 PM 89.1 °F 93.7 °F 69.3 °F 52% 29.86 in 10.0 mi SE 12.7 mph - N/A   Mostly Cloudy
5:15 PM 87.4 °F 91.9 °F 69.3 °F 55% 29.86 in 10.0 mi SE 13.8 mph 21.9 mph N/A   Mostly Cloudy
5:35 PM 88.2 °F 92.1 °F 68.4 °F 52% 29.86 in 10.0 mi SE 13.8 mph 17.3 mph N/A   Mostly Cloudy
5:55 PM 88.5 °F 92.7 °F 68.9 °F 52% 29.85 in 10.0 mi ESE 13.8 mph 19.6 mph N/A   Scattered Clouds
6:15 PM 88.2 °F 91.7 °F 68.2 °F 51% 29.85 in 10.0 mi ESE 15.0 mph 21.9 mph N/A   Clear
6:35 PM 87.6 °F 92.3 °F 69.6 °F 55% 29.85 in 10.0 mi ESE 19.6 mph 23.0 mph N/A   Clear
6:55 PM 85.5 °F 91.1 °F 71.6 °F 63% 29.85 in 10.0 mi ESE 16.1 mph 23.0 mph N/A   Clear
7:15 PM 83.7 °F 89.2 °F 72.0 °F 68% 29.86 in 10.0 mi ESE 13.8 mph 20.7 mph N/A   Clear
7:35 PM 82.4 °F 87.7 °F 72.5 °F 72% 29.87 in 10.0 mi ESE 15.0 mph 19.6 mph N/A   Clear
7:55 PM 81.7 °F 86.5 °F 72.3 °F 73% 29.88 in 10.0 mi ESE 11.5 mph 19.6 mph N/A   Clear
8:15 PM 80.8 °F 85.1 °F 72.1 °F 75% 29.89 in 10.0 mi ESE 15.0 mph 18.4 mph N/A   Clear
8:35 PM 80.1 °F 84.0 °F 72.1 °F 77% 29.89 in 10.0 mi ESE 12.7 mph 18.4 mph N/A   Clear
8:55 PM 79.5 °F - 72.5 °F 79% 29.91 in 10.0 mi ESE 11.5 mph 16.1 mph N/A   Clear
9:15 PM 78.8 °F - 72.5 °F 81% 29.91 in 10.0 mi ESE 11.5 mph 18.4 mph N/A   Clear
9:35 PM 78.4 °F - 72.5 °F 82% 29.91 in 10.0 mi ESE 13.8 mph 18.4 mph N/A   Clear
9:55 PM 78.1 °F - 72.7 °F 83% 29.93 in 10.0 mi ESE 13.8 mph 17.3 mph N/A   Clear
10:15 PM 77.9 °F - 72.9 °F 84% 29.94 in 10.0 mi ESE 11.5 mph 17.3 mph N/A   Clear
10:35 PM 77.5 °F - 72.9 °F 85% 29.94 in 10.0 mi ESE 11.5 mph - N/A   Clear
10:55 PM 77.0 °F - 72.7 °F 86% 29.94 in 10.0 mi ESE 8.1 mph - N/A   Clear
11:15 PM 77.0 °F - 72.9 °F 87% 29.95 in 10.0 mi ESE 8.1 mph - N/A   Clear
11:35 PM 76.5 °F - 72.7 °F 88% 29.94 in 10.0 mi East 6.9 mph - N/A   Clear
11:55 PM 76.5 °F - 72.9 °F 89% 29.95 in 10.0 mi ESE 5.8 mph - N/A   Clear